Weather Roundup
Issued by NWS Springfield, MO

Home | Current Version | Previous Version | Text Only | Print | Product List | Glossary On
Versions: 1 2 3 4 5 6 7 8 9 10 11 12 13 14 15 16 17 18 19 20 21 22 23 24 25 26 27 28 29 30 31 32 33 34 35 36 37 38 39 40 41 42 43 44 45 46 47 48 49 50
000
NZUS99 KSGF 291310
HRRSGF

HOURLY WEATHER
NATIONAL WEATHER SERVICE SPRINGFIELD MO
800 AM CDT SAT AUG 29 2015

......SGF CWA......

CITY           SKY/WX    TMP DP  RH WIND       PRES   REMARKS
SPRINGFIELD    CLOUDY    67  62  84 S10       30.02R
JOPLIN         SUNNY     70  63  78 S6        30.00R
WEST PLAINS    CLOUDY    66  62  87 W6        30.09R
ROLLA          LGT RAIN  65  63  93 S12       30.02R FOG
OSAGE BEACH    CLOUDY    72  61  68 S12       30.01S
BRANSON        CLOUDY    64  64 100 SE7       30.05S

......SURROUNDING SGF CWA......

CITY           SKY/WX    TMP DP  RH WIND       PRES   REMARKS
CHANUTE        CLOUDY    70  66  87 N7        30.00R
PARSONS        CLOUDY    69  68  96 CALM      30.01R FOG
COFFEYVILLE    PTSUNNY   69  67  93 S3        29.99R
EMPORIA        CLOUDY    64  63  96 CALM      30.02R
GROVE OK       SUNNY     70  66  88 CALM      30.01R
ROGERS AR      MOSUNNY   70  62  76 S6        30.04R
SILOAM SPRINGS SUNNY     70  57  64 S8        30.01S
NEAR YELLVILLE CLOUDY    66  61  82 CALM      30.05R

......KANSAS AND MISSOURI......

CITY           SKY/WX    TMP DP  RH WIND       PRES   REMARKS
KANSAS CTY INT CLOUDY    68  65  90 N7        29.99R
DOWNTOWN KC    CLOUDY    70  67  90 NW6       29.98R
COLUMBIA       CLOUDY    68  64  87 S7        30.00S
SEDALIA        PTSUNNY   70  63  78 S8        30.00R
ST JOSEPH      CLOUDY    66  65  96 N6        30.00R
ST LOUIS       CLOUDY    73  63  70 SE8       30.03R
SPIRIT OF STL  CLOUDY    70  65  84 CALM      30.01R
KIRKSVILLE     CLOUDY    69  64  84 S3        29.99R
WICHITA        MOSUNNY   68  63  84 N10       30.02R
TOPEKA         CLOUDY    64  63  96 CALM      30.01R
OLATHE         CLOUDY    68  66  93 NW9       29.99R

......TENNESSEE......

CITY           SKY/WX    TMP DP  RH WIND       PRES   REMARKS
MEMPHIS        MOSUNNY   74  68  81 S6        30.07R
NASHVILLE      SUNNY     74  66  76 VRB3      30.14R

......ARKANSAS.......

CITY           SKY/WX    TMP DP  RH WIND       PRES   REMARKS
FAYETTEVILLE   MOSUNNY   71  61  70 S13       30.04R
FT SMITH       LGT RAIN  73  63  70 S7        30.02S
LITTLE ROCK    PTSUNNY   73  67  81 CALM      30.05R

......OKLAHOMA.......

CITY           SKY/WX    TMP DP  RH WIND       PRES   REMARKS
TULSA          MOSUNNY   73  64  73 S6        29.96R
PONCA CITY     SUNNY     69  67  93 N7        29.99S FOG
MCALESTER      PTSUNNY   70  65  84 VRB3      30.02R
OKLAHOMA CITY  PTSUNNY   68  66  93 S5        30.00R

......IOWA............

CITY           SKY/WX    TMP DP  RH WIND       PRES   REMARKS
DES MOINES     CLOUDY    64  61  90 N8        30.00R
QUAD CITIES    CLOUDY    69  63  81 SW3       29.97R

......ILLINOIS........

CITY           SKY/WX    TMP DP  RH WIND       PRES   REMARKS
QUINCY         PTSUNNY   69  63  81 S7        29.99S
CHICAGO        LGT RAIN  64  62  93 E8        30.05R FOG



USA.gov is the U.S. government's official web portal to all federal, state and local government web resources and services.